FW2665 Weather Reports


time (UTC)temp
F
wind
direction
speed
knots
gust
knots
rain 1hr
in
rain 24hr
in
rain mn
in
humidity
%
barometer
mb
20260507012503 50 283 2.6 4.3 0.00 0.00 0.00 42 1014.5
20260507011504 51 285 2.6 5.2 0.00 0.00 0.00 42 1014.6
20260507011004 51 289 2.6 7.0 0.00 0.00 0.00 42 1014.6
20260507005504 53 273 5.2 7.8 0.00 0.00 0.00 38 1014.7
20260507005003 53 289 5.2 8.7 0.00 0.00 0.00 37 1014.7
20260507004504 54 294 6.1 8.7 0.00 0.00 0.00 37 1014.7
20260507004004 54 280 6.1 10.4 0.00 0.00 0.00 36 1014.7
20260507003504 54 280 7.8 10.4 0.00 0.00 0.00 35 1014.8
20260507002504 54 290 7.0 12.2 0.00 0.00 0.00 36 1014.9
20260507001503 54 277 8.7 13.0 0.00 0.00 0.00 35 1015.0
20260507001004 54 276 9.6 15.6 0.00 0.00 0.00 34 1015.0
20260507000503 55 286 9.6 17.4 0.00 0.00 0.00 33 1015.1
20260507000004 55 289 12.2 17.4 0.00 0.00 0.00 33 1015.1
20260506235504 56 282 13.0 17.4 0.00 0.00 0.00 33 1015.2
20260506235003 56 275 9.6 13.9 0.00 0.00 0.00 34 1015.2
20260506234504 56 286 9.6 15.6 0.00 0.00 0.00 34 1015.2
20260506233504 55 285 10.4 18.2 0.00 0.00 0.00 33 1015.3
20260506233003 56 277 14.8 18.2 0.00 0.00 0.00 31 1015.3
20260506232504 56 274 12.2 15.6 0.00 0.00 0.00 32 1015.3
20260506231504 56 278 11.3 15.6 0.00 0.00 0.00 32 1015.4
20260506231004 56 278 11.3 19.1 0.00 0.00 0.00 32 1015.5
20260506230504 57 268 12.2 19.1 0.00 0.00 0.00 30 1015.4
20260506230004 58 267 15.6 19.1 0.00 0.00 0.00 29 1015.4
20260506225505 57 272 14.8 19.1 0.00 0.00 0.00 30 1015.4
20260506225004 57 270 12.2 19.1 0.00 0.00 0.00 31 1015.4
20260506224506 57 257 14.8 19.1 0.00 0.00 0.00 31 1015.5
20260506224004 57 278 11.3 17.4 0.00 0.00 0.00 33 1015.5
20260506223505 57 295 9.6 15.6 0.00 0.00 0.00 34 1015.6
20260506223004 56 281 11.3 19.1 0.00 0.00 0.00 32 1015.7
20260506222504 55 273 12.2 19.1 0.00 0.00 0.00 33 1015.8
20260506222004 56 292 14.8 18.2 0.00 0.00 0.00 31 1015.9
20260506221504 56 273 11.3 17.4 0.00 0.00 0.00 33 1015.9
20260506221004 56 296 11.3 17.4 0.00 0.00 0.00 32 1016.0
20260506220003 55 289 10.4 20.9 0.00 0.00 0.00 32 1016.1
20260506214504 55 284 12.2 20.0 0.00 0.00 0.00 33 1016.2
20260506214006 55 282 11.3 18.2 0.00 0.00 0.00 32 1016.4
20260506213503 55 302 13.9 18.2 0.00 0.00 0.00 32 1016.4
20260506213004 56 291 12.2 18.2 0.00 0.00 0.00 32 1016.4
20260506212003 55 286 15.6 20.0 0.00 0.00 0.00 33 1016.6
20260506211504 55 284 10.4 19.1 0.00 0.00 0.00 34 1016.6
20260506211003 56 299 12.2 24.3 0.00 0.00 0.00 34 1016.7
20260506210504 57 296 14.8 24.3 0.00 0.00 0.00 32 1016.7
20260506210003 56 300 7.8 15.6 0.00 0.00 0.00 35 1016.8
20260506205503 56 274 11.3 19.1 0.00 0.00 0.00 34 1016.9
20260506205004 55 311 11.3 20.9 0.00 0.00 0.00 35 1016.9
20260506204504 55 282 13.9 20.9 0.00 0.00 0.00 34 1017.0
20260506204004 56 315 12.2 20.0 0.00 0.00 0.00 32 1017.0
20260506203504 57 309 13.0 20.0 0.00 0.00 0.00 34 1017.1
20260506203004 56 302 11.3 17.4 0.00 0.00 0.00 35 1017.1
20260506202503 56 305 10.4 17.4 0.00 0.00 0.00 35 1017.2
20260506202003 56 301 11.3 21.7 0.00 0.00 0.00 34 1017.2
20260506201503 56 283 12.2 21.7 0.00 0.00 0.00 35 1017.3
20260506201004 56 283 7.8 21.7 0.00 0.00 0.00 35 1017.3
20260506200504 55 264 13.9 21.7 0.00 0.00 0.00 32 1017.3
20260506200004 55 301 9.6 20.0 0.00 0.00 0.00 35 1017.3
20260506195503 55 293 13.9 22.6 0.00 0.00 0.00 33 1017.3
20260506195005 56 308 15.6 22.6 0.00 0.00 0.00 34 1017.4
20260506194504 55 305 13.0 22.6 0.00 0.00 0.00 35 1017.4
20260506194004 55 306 14.8 22.6 0.00 0.00 0.00 33 1017.4
20260506193504 55 263 12.2 21.7 0.00 0.00 0.00 33 1017.5
20260506193004 56 310 12.2 21.7 0.00 0.00 0.00 34 1017.5
20260506192504 55 307 15.6 21.7 0.00 0.00 0.00 38 1017.4
20260506191504 54 318 8.7 22.6 0.00 0.00 0.00 35 1017.6
20260506190504 56 312 13.9 20.9 0.00 0.00 0.00 38 1017.7
20260506190004 55 292 14.8 20.9 0.00 0.00 0.00 39 1017.7
20260506185503 56 308 11.3 22.6 0.00 0.00 0.00 36 1017.9
20260506185004 55 286 10.4 22.6 0.00 0.00 0.00 39 1017.9
20260506184504 54 322 9.6 21.7 0.00 0.00 0.00 37 1018.0
20260506184003 54 296 15.6 21.7 0.00 0.00 0.00 40 1018.0
20260506183005 52 308 12.2 19.1 0.00 0.00 0.00 41 1018.2
20260506182504 52 304 10.4 20.9 0.00 0.00 0.00 41 1018.2
20260506182004 53 294 15.6 20.9 0.00 0.00 0.00 39 1018.2
20260506181004 53 282 13.9 22.6 0.00 0.00 0.00 42 1018.3
20260506180504 53 277 15.6 20.9 0.00 0.00 0.00 38 1018.4
20260506180005 54 310 13.0 20.0 0.00 0.00 0.00 39 1018.4
20260506175504 54 312 12.2 20.0 0.00 0.00 0.00 38 1018.5
20260506175004 54 290 13.9 20.0 0.00 0.00 0.00 38 1018.4
20260506174504 54 284 11.3 20.9 0.00 0.00 0.00 40 1018.5
20260506174004 53 262 14.8 20.9 0.00 0.00 0.00 40 1018.7
20260506173503 53 306 12.2 19.1 0.00 0.00 0.00 42 1018.7
20260506172004 52 315 13.0 26.9 0.00 0.00 0.00 44 1018.9
20260506171006 52 322 9.6 20.0 0.00 0.00 0.00 44 1018.9
20260506170504 53 299 12.2 25.2 0.00 0.00 0.00 44 1019.0
20260506170004 53 300 14.8 25.2 0.00 0.00 0.00 44 1019.0
20260506165503 52 279 13.9 19.1 0.00 0.00 0.00 43 1019.1
20260506165004 52 301 10.4 18.2 0.00 0.00 0.00 48 1019.2
20260506164504 51 285 14.8 18.2 0.00 0.00 0.00 45 1019.2
20260506164004 51 303 11.3 19.1 0.00 0.00 0.00 45 1019.2
20260506163503 51 306 10.4 19.1 0.00 0.00 0.00 45 1019.3
20260506163004 51 309 8.7 18.2 0.00 0.00 0.00 48 1019.4
20260506162503 51 279 12.2 18.2 0.00 0.00 0.00 45 1019.5
20260506162005 50 302 8.7 17.4 0.00 0.00 0.00 46 1019.4
20260506161504 50 282 12.2 17.4 0.00 0.00 0.00 47 1019.4
20260506161006 49 280 11.3 15.6 0.00 0.00 0.00 48 1019.4
20260506160504 49 295 10.4 15.6 0.00 0.00 0.00 49 1019.6
20260506160004 49 277 9.6 13.9 0.00 0.00 0.00 50 1019.5
20260506155504 48 310 10.4 13.0 0.00 0.00 0.00 51 1019.6
20260506155004 48 297 7.8 13.0 0.00 0.00 0.00 50 1019.6
20260506154504 48 258 8.7 12.2 0.00 0.00 0.00 51 1019.7
20260506153004 47 297 6.1 14.8 0.00 0.00 0.00 53 1019.8
20260506152004 46 274 7.8 14.8 0.00 0.00 0.00 53 1019.9
20260506151504 46 309 5.2 13.0 0.00 0.00 0.00 54 1019.9
20260506151004 46 274 8.7 13.0 0.00 0.00 0.00 53 1019.9
20260506150504 46 281 6.1 10.4 0.00 0.00 0.00 54 1019.9
20260506150004 46 342 5.2 8.7 0.00 0.00 0.00 55 1020.0
20260506145504 45 309 6.1 10.4 0.00 0.00 0.00 56 1020.0
20260506145004 45 295 5.2 10.4 0.00 0.00 0.00 57 1020.0
20260506144504 44 271 6.1 10.4 0.00 0.00 0.00 60 1020.0
20260506144004 44 264 3.5 7.8 0.00 0.00 0.00 59 1020.1
20260506143504 43 280 4.3 8.7 0.00 0.00 0.00 60 1020.1
20260506143004 43 293 6.1 8.7 0.00 0.00 0.00 61 1020.1
20260506142504 42 280 4.3 8.7 0.00 0.00 0.00 63 1020.1
20260506141503 41 278 4.3 7.8 0.00 0.00 0.00 70 1020.1
20260506141004 41 299 3.5 7.8 0.00 0.00 0.00 70 1020.2
20260506140504 40 273 4.3 7.8 0.00 0.00 0.00 71 1020.2
20260506140003 39 257 4.3 6.1 0.00 0.00 0.00 73 1020.2
20260506135503 39 279 4.3 6.1 0.00 0.00 0.00 72 1020.1
20260506135004 38 277 4.3 6.1 0.00 0.00 0.00 75 1020.1
20260506134504 37 262 4.3 6.1 0.00 0.00 0.00 75 1020.1
20260506134003 36 256 4.3 5.2 0.00 0.00 0.00 77 1020.0
20260506133503 35 264 2.6 4.3 0.00 0.00 0.00 81 1020.0
20260506133004 34 293 2.6 5.2 0.00 0.00 0.00 82 1019.9
20260506132004 33 282 2.6 4.3 0.00 0.00 0.00 83 1019.9
20260506131504 33 304 1.7 2.6 0.00 0.00 0.00 84 1019.8
20260506131003 32 287 2.6 2.6 0.00 0.00 0.00 84 1019.7
20260506130504 32 289 1.7 2.6 0.00 0.00 0.00 85 1019.7
20260506130005 31 311 1.7 2.6 0.00 0.00 0.00 86 1019.7
20260506125004 30 284 2.6 2.6 0.00 0.00 0.00 86 1019.5
20260506124504 30 300 1.7 2.6 0.00 0.00 0.00 86 1019.5
20260506124004 30 284 1.7 2.6 0.00 0.00 0.00 87 1019.5
20260506123506 29 261 1.7 2.6 0.00 0.00 0.00 87 1019.4
20260506123004 29 261 2.6 2.6 0.00 0.00 0.00 87 1019.4
20260506122503 28 261 2.6 2.6 0.00 0.00 0.00 87 1019.4
20260506121503 28 256 1.7 2.6 0.00 0.00 0.00 87 1019.2
20260506121004 27 253 2.6 2.6 0.00 0.00 0.00 87 1019.2
20260506120503 27 232 1.7 2.6 0.00 0.00 0.00 87 1019.0
20260506120004 27 232 1.7 2.6 0.00 0.00 0.00 88 1019.0
20260506115503 27 232 1.7 2.6 0.00 0.00 0.00 87 1019.0
20260506115004 27 232 0.9 1.7 0.00 0.00 0.00 87 1018.8
20260506114503 27 232 0.9 1.7 0.00 0.00 0.00 87 1018.7
20260506114005 27 232 1.7 2.6 0.00 0.00 0.00 87 1018.7
20260506113004 27 232 1.7 2.6 0.00 0.00 0.00 87 1018.7
20260506112504 27 232 2.6 2.6 0.00 0.00 0.00 88 1018.7
20260506112004 26 232 1.7 2.6 0.00 0.00 0.00 88 1018.6
20260506111504 26 232 1.7 2.6 0.00 0.00 0.00 88 1018.6
20260506111004 26 232 2.6 4.3 0.00 0.00 0.00 88 1018.6
20260506110504 25 232 2.6 4.3 0.00 0.00 0.00 87 1018.6
20260506110004 25 232 2.6 5.2 0.00 0.00 0.00 87 1018.6
20260506104504 24 228 4.3 4.3 0.00 0.00 0.00 83 1018.5
20260506104004 24 291 1.7 2.6 0.00 0.00 0.00 82 1018.4
20260506103504 25 291 0.0 2.6 0.00 0.00 0.00 81 1018.3
20260506103004 26 291 0.9 2.6 0.00 0.00 0.00 82 1018.2
20260506102504 26 291 0.9 2.6 0.00 0.00 0.00 85 1018.2
20260506102004 26 291 1.7 2.6 0.00 0.00 0.00 85 1018.1
20260506101503 25 291 2.6 2.6 0.00 0.00 0.00 84 1018.1
20260506100503 26 291 1.7 2.6 0.00 0.00 0.00 83 1018.2
20260506095503 26 291 1.7 5.2 0.00 0.00 0.00 81 1018.1
20260506095003 26 291 2.6 7.0 0.00 0.00 0.00 80 1018.1
20260506094503 27 245 5.2 7.0 0.00 0.00 0.00 78 1018.2
20260506094004 28 285 1.7 2.6 0.00 0.00 0.00 82 1018.2
20260506093504 28 317 1.7 2.6 0.00 0.00 0.00 81 1018.1
20260506093004 28 319 1.7 2.6 0.00 0.00 0.00 80 1018.0
20260506092504 28 327 1.7 2.6 0.00 0.00 0.00 80 1018.0
20260506092004 28 324 1.7 2.6 0.00 0.00 0.00 80 1017.9
20260506091506 29 322 1.7 2.6 0.00 0.00 0.00 79 1018.0
20260506091004 29 314 2.6 2.6 0.00 0.00 0.00 79 1018.0
20260506090504 29 313 2.6 2.6 0.00 0.00 0.00 79 1017.8
20260506090004 29 323 1.7 2.6 0.00 0.00 0.00 79 1017.7
20260506085504 29 322 2.6 4.3 0.00 0.00 0.00 79 1017.5
20260506085006 29 316 2.6 4.3 0.00 0.00 0.00 79 1017.6
20260506084504 29 310 2.6 4.3 0.00 0.00 0.00 79 1017.7
20260506084005 29 309 2.6 2.6 0.00 0.00 0.00 78 1017.7
20260506083004 29 299 2.6 4.3 0.00 0.00 0.00 78 1017.9
20260506082504 29 294 3.5 4.3 0.00 0.00 0.00 78 1018.0
20260506082004 29 297 4.3 4.3 0.00 0.00 0.00 78 1018.0
20260506081504 29 288 2.6 4.3 0.00 0.00 0.00 77 1018.0
20260506081005 29 278 2.6 4.3 0.00 0.00 0.00 77 1018.0
20260506080504 29 268 4.3 4.3 0.00 0.00 0.00 77 1018.0
20260506073504 32 316 4.3 5.2 0.00 0.00 0.00 73 1017.3
20260506073003 32 321 4.3 5.2 0.00 0.00 0.00 73 1017.2
20260506072504 32 319 2.6 5.2 0.00 0.00 0.00 74 1017.1
20260506072003 31 326 4.3 5.2 0.00 0.00 0.00 75 1017.2
20260506071004 31 307 2.6 4.3 0.00 0.00 0.00 74 1017.1
20260506070504 31 304 2.6 4.3 0.00 0.00 0.00 74 1017.2
20260506062505 32 307 1.7 2.6 0.00 0.00 0.00 74 1017.5
20260506062004 32 338 0.9 2.6 0.00 0.00 0.00 73 1017.5
20260506061506 31 355 0.9 2.6 0.00 0.00 0.00 74 1017.4
20260506061004 31 342 0.9 2.6 0.00 0.00 0.00 75 1017.3
20260506060504 30 334 0.9 2.6 0.00 0.00 0.00 77 1017.3
20260506050504 32 344 0.9 1.7 0.00 0.00 0.00 66 1016.5
20260506045004 35 345 0.9 2.6 0.00 0.00 0.00 61 1016.5
20260506044504 36 345 0.9 2.6 0.00 0.00 0.00 61 1016.7
20260506044004 37 342 1.7 2.6 0.00 0.00 0.00 61 1016.6
20260506043503 37 335 1.7 2.6 0.00 0.00 0.00 62 1016.7
20260506043004 36 335 1.7 2.6 0.00 0.00 0.00 62 1016.9
20260506042503 36 345 2.6 2.6 0.00 0.00 0.00 62 1016.9
20260506042004 36 340 2.6 4.3 0.00 0.00 0.00 63 1016.9
20260506041504 36 342 2.6 4.3 0.00 0.00 0.00 63 1016.9
20260506041004 36 340 1.7 2.6 0.00 0.00 0.00 62 1016.9
20260506040503 36 334 1.7 2.6 0.00 0.00 0.00 62 1016.9
20260506040004 36 331 1.7 2.6 0.00 0.00 0.00 62 1016.9
20260506035004 35 325 1.7 2.6 0.00 0.00 0.00 63 1016.9
20260506034504 36 317 1.7 2.6 0.00 0.00 0.00 62 1017.0
20260506034004 36 322 1.7 2.6 0.00 0.00 0.00 62 1016.9
20260506033504 37 319 1.7 2.6 0.00 0.00 0.00 61 1017.0
20260506032504 38 327 2.6 4.3 0.00 0.00 0.00 58 1016.7
20260506031503 39 332 2.6 4.3 0.00 0.00 0.00 57 1016.7
20260506031004 39 333 2.6 2.6 0.00 0.00 0.00 57 1016.6
20260506030504 39 332 1.7 4.3 0.00 0.00 0.00 56 1016.6
20260506030004 39 338 2.6 4.3 0.00 0.00 0.00 56 1016.5
20260506025503 39 340 2.6 5.2 0.00 0.00 0.00 56 1016.4
20260506025004 39 348 2.6 5.2 0.00 0.00 0.00 56 1016.3
20260506024503 39 339 2.6 5.2 0.00 0.00 0.00 57 1016.3
20260506024004 38 347 2.6 5.2 0.00 0.00 0.00 57 1016.1
20260506023004 38 331 1.7 2.6 0.00 0.00 0.00 58 1016.0
20260506022504 38 323 1.7 2.6 0.00 0.00 0.00 58 1016.0
20260506021504 39 329 1.7 2.6 0.00 0.00 0.00 57 1015.8
20260506021004 40 319 1.7 2.6 0.00 0.00 0.00 56 1015.7
20260506020503 41 330 1.7 5.2 0.00 0.00 0.00 55 1015.5
20260506020004 41 339 1.7 5.2 0.00 0.00 0.00 54 1015.5
20260506015504 41 348 2.6 6.1 0.00 0.00 0.00 52 1015.4
20260506015004 42 336 2.6 6.1 0.00 0.00 0.00 52 1015.5
20260506014504 42 344 4.3 6.1 0.00 0.00 0.00 52 1015.4
20260506014004 42 347 4.3 6.1 0.00 0.00 0.00 52 1015.4
20260506013004 43 340 3.5 5.2 0.00 0.00 0.00 50 1015.2